EA8NE-9 Weather Reports


time (UTC)temp
C
wind
direction
speed
KPH
gust
KPH
rain 1hr
cm
rain 24hr
cm
rain mn
cm
humidity
%
barometer
mb
20220525135902 21 36 11.3 12.9 0.00 0.00 0.00 15 1022.8
20220525134902 20 165 4.8 11.3 0.00 0.00 0.00 12 1022.8
20220525133902 20 133 8.0 12.9 0.00 0.00 0.00 15 1022.8
20220525132902 21 138 4.8 4.8 0.00 0.00 0.00 15 1022.8
20220525131902 20 133 8.0 14.5 0.00 0.00 0.00 15 1022.8
20220525125902 21 113 8.0 8.0 0.00 0.00 0.00 14 1022.8
20220525124902 21 162 3.2 8.0 0.00 0.00 0.00 12 1022.8
20220525122902 21 58 11.3 11.3 0.00 0.00 0.00 12 1022.8
20220525121902 20 113 4.8 8.0 0.00 0.00 0.00 15 1022.8
20220525115902 20 126 4.8 11.3 0.00 0.00 0.00 17 1022.8
20220525114902 19 88 8.0 11.3 0.00 0.00 0.00 20 1022.8
20220525112902 19 109 11.3 11.3 0.00 0.00 0.00 23 1022.8
20220525111902 18 72 11.3 11.3 0.00 0.00 0.00 23 1022.8
20220525104902 18 87 3.2 6.4 0.00 0.00 0.00 24 1022.8
20220525102902 19 112 11.3 11.3 0.00 0.00 0.00 24 1022.8
20220525101902 20 98 8.0 8.0 0.00 0.00 0.00 23 1022.8
20220525095903 20 95 6.4 11.3 0.00 0.00 0.00 20 1022.8
20220525094903 21 92 11.3 14.5 0.00 0.00 0.00 17 1022.8
20220525092902 22 85 12.9 12.9 0.00 0.00 0.00 11 1022.8
20220525091902 22 62 4.8 6.4 0.00 0.00 0.00 11 1022.8
20220525085902 21 149 0.0 0.0 0.00 0.00 0.00 12 1022.8
20220525083902 19 99 3.2 3.2 0.00 0.00 0.00 22 1022.8
20220525081902 17 322 0.0 0.0 0.00 0.00 0.00 23 1022.8
20220525080902 17 226 0.0 4.8 0.00 0.00 0.00 24 1022.8
20220525075902 17 182 0.0 0.0 0.00 0.00 0.00 24 1021.8
20220525074902 17 223 0.0 0.0 0.00 0.00 0.00 25 1021.8
20220525072902 17 177 0.0 0.0 0.00 0.00 0.00 26 1021.8
20220525071902 16 245 4.8 11.3 0.00 0.00 0.00 27 1021.8
20220525070902 16 203 4.8 8.0 0.00 0.00 0.00 27 1021.8
20220525064904 16 219 11.3 11.3 0.00 0.00 0.00 27 1021.8